Theta_e
305 301 301 301 301 301 301 301 302 303 304 304 306 306 306 307 308 314 325 320 323 321 326 342 343 343 345 349 350 347 355 357 351 340 340 339 346 348 351 353 351 350 353 351 351
302 302 301 301 301 301 301 301 301 302 303 304 305 306 306 306 312 317 316 316 321 325 324 336 338 340 340 342 346 353 354 349 345 343 338 342 347 347 350 352 352 351 350 351 350
302 301 301 301 301 301 301 301 301 302 302 304 304 305 306 307 322 319 325 324 319 322 327 326 327 332 338 336 343 349 351 345 344 343 341 338 340 341 343 352 351 352 350 350 351
303 302 301 301 300 300 301 301 301 302 303 303 304 305 306 315 318 323 322 323 323 324 326 325 323 326 331 334 343 346 344 342 342 343 340 339 338 342 342 344 349 348 346 346 351
304 303 302 301 301 301 301 301 301 302 303 303 304 306 311 323 321 319 320 320 320 321 327 325 323 326 331 333 341 346 345 341 341 341 340 338 339 342 343 349 349 348 347 347 345
305 304 303 302 301 301 301 302 302 302 303 304 307 313 320 316 316 318 322 321 325 327 326 325 326 328 331 333 334 343 345 342 338 339 340 341 339 341 344 349 350 350 348 347 345
304 304 303 303 302 301 301 302 303 303 304 306 312 320 321 316 319 323 323 323 323 327 325 326 327 327 329 331 331 332 335 343 341 334 341 341 340 342 343 348 350 350 349 348 346
304 304 303 303 302 302 302 302 303 305 307 309 319 322 322 316 319 319 320 325 327 326 327 326 327 324 325 326 327 330 329 330 333 334 336 340 345 339 340 346 349 349 349 349 347
304 304 304 305 304 303 303 304 306 312 311 316 322 324 328 325 322 320 322 322 324 326 326 327 325 324 325 323 323 325 328 329 332 334 338 340 344 342 338 344 346 347 347 347 346
304 303 303 303 304 304 304 306 315 314 320 323 325 328 329 326 326 325 325 323 323 324 323 323 324 324 322 321 323 325 328 328 332 338 338 342 343 342 339 341 345 346 346 346 345
304 303 302 302 304 305 304 309 316 320 325 331 327 326 322 327 327 327 326 324 321 321 321 323 322 325 323 323 324 327 328 330 332 339 340 345 344 342 340 340 342 345 345 345 345
304 303 302 301 304 307 311 314 315 315 313 315 316 320 325 327 330 328 326 322 320 320 322 323 323 325 325 325 325 326 328 330 332 339 341 348 347 343 339 339 341 343 345 345 345
303 303 302 302 305 313 307 310 314 313 311 313 314 315 316 318 324 327 325 323 323 324 325 324 325 327 326 325 326 326 327 329 333 341 342 347 354 344 341 342 343 342 343 344 344
304 303 302 302 310 306 309 314 314 313 311 316 317 317 317 317 322 327 327 325 326 326 325 324 325 326 324 324 324 325 328 330 332 340 344 346 354 350 345 345 345 342 342 342 344
304 303 303 302 305 309 312 311 312 313 318 324 322 322 318 317 323 327 329 326 327 326 324 324 326 325 324 323 324 325 328 330 331 332 344 344 345 346 349 349 347 343 341 341 341
304 303 303 305 305 306 308 310 312 314 319 323 324 320 318 317 320 323 326 324 326 327 324 323 325 325 324 324 324 325 326 328 330 331 339 343 343 344 343 349 347 345 343 341 340
304 303 303 306 306 308 309 312 312 315 323 326 325 323 321 319 319 320 322 321 322 326 327 326 324 324 326 322 322 323 322 327 331 332 333 341 345 344 342 344 347 347 345 342 341
304 303 305 308 309 309 310 313 316 321 319 322 323 325 325 323 321 321 320 321 321 322 326 328 327 325 325 323 321 322 321 326 330 332 332 332 345 345 343 343 346 344 343 340 344
303 305 306 307 309 310 312 316 316 318 320 319 319 322 325 327 326 322 321 323 322 322 324 327 328 328 326 326 323 323 321 322 323 327 331 333 334 335 342 344 343 342 341 341 341
304 306 308 309 312 311 313 315 316 317 316 316 317 319 321 319 320 326 323 323 325 323 322 324 329 328 328 326 324 323 323 322 322 324 329 330 333 339 342 345 343 342 341 341 343
306 309 308 308 310 313 314 314 315 315 316 317 318 319 319 320 319 319 321 326 326 325 323 322 324 327 328 326 324 322 322 321 321 323 326 330 331 334 345 345 344 342 342 342 342
306 308 307 308 310 313 313 314 313 314 315 316 317 318 319 319 319 319 320 320 325 328 325 324 323 325 326 327 326 325 322 320 323 324 325 325 328 332 332 344 343 343 341 339 340
306 306 306 307 309 311 312 313 313 312 314 315 316 316 317 318 320 320 320 321 321 321 327 326 325 325 325 325 326 326 326 322 321 321 324 329 328 328 329 342 341 339 340 341 339
306 307 307 308 309 310 311 314 315 313 314 314 315 315 316 319 320 321 322 322 321 320 336 336 326 325 326 326 328 329 327 325 323 322 321 323 323 329 336 339 339 340 340 338 340
307 307 306 308 309 309 310 313 312 311 311 311 314 315 317 317 321 322 323 322 320 323 323 322 327 327 326 327 328 328 330 327 325 323 323 322 324 326 329 338 337 337 336 337 342
306 307 306 307 307 308 308 309 308 310 311 312 312 315 315 319 320 320 319 319 320 319 318 319 326 328 328 326 326 326 328 329 326 326 326 326 326 328 328 339 341 339 337 339 340
305 305 307 307 306 306 307 308 309 310 311 311 312 312 314 313 314 314 314 315 316 318 320 320 322 330 330 329 328 326 326 327 330 328 327 326 325 327 328 334 339 342 337 335 335
Wind_Speed
25 24 24 25 25 25 24 24 24 24 24 24 23 22 22 25 28 16 8 22 16 24 7 5 11 13 17 11 5 6 3 7 7 11 6 9 17 21 25 23 22 12 18 30 37
26 25 25 26 26 26 26 26 26 27 26 25 24 24 22 23 23 16 38 30 24 23 21 14 10 12 6 9 3 4 2 6 10 10 3 15 22 18 17 15 16 22 20 36 37
28 28 29 30 30 29 28 28 28 30 28 26 26 24 21 17 6 8 11 17 24 25 24 18 18 12 11 10 5 7 5 8 17 14 10 11 15 15 14 14 21 24 22 28 28
31 31 30 30 31 32 32 31 31 32 29 27 26 24 18 3 6 2 4 5 19 23 21 17 9 10 9 12 9 8 13 7 7 8 5 13 12 15 15 14 24 25 22 17 25
32 32 32 32 32 33 33 32 33 33 31 27 23 21 4 5 13 18 5 11 13 15 18 13 13 12 13 13 8 9 12 11 18 18 14 16 12 18 14 27 25 22 19 15 16
34 35 35 35 34 35 36 34 37 35 30 25 18 11 2 10 19 19 28 18 14 15 15 17 9 14 9 15 14 14 9 18 11 13 14 13 11 11 21 26 27 24 19 12 12
35 36 37 37 37 38 39 38 40 35 26 20 13 4 6 22 10 8 23 28 19 21 10 21 22 11 6 13 17 16 12 21 15 8 11 17 10 16 20 25 25 24 19 15 13
35 38 38 38 39 40 41 43 40 30 24 15 6 6 9 18 18 22 17 27 26 18 23 22 24 12 8 9 15 13 8 9 12 10 6 13 7 15 16 23 23 23 20 18 16
36 39 41 39 40 43 44 44 37 23 10 5 5 6 10 15 14 32 22 18 21 26 27 23 13 10 9 8 7 7 9 10 11 12 8 9 10 16 15 20 21 21 20 18 15
37 41 42 41 40 42 46 39 18 1 3 3 8 3 9 12 15 22 24 25 9 9 11 9 6 8 8 8 11 9 8 11 11 8 15 12 6 12 13 18 20 21 20 18 17
37 40 42 40 40 41 42 15 5 0 7 8 9 8 22 15 11 16 25 15 10 7 11 11 8 16 14 15 10 15 14 16 13 11 10 9 10 13 14 9 11 20 20 20 20
39 41 42 42 40 30 11 4 14 13 12 16 25 26 34 29 10 15 28 13 10 14 11 11 19 14 13 12 18 20 19 20 15 19 10 18 12 14 14 17 14 19 21 21 20
39 43 43 44 37 4 23 20 19 23 7 15 24 18 22 17 23 14 15 17 16 17 18 18 9 17 18 18 19 22 21 16 8 5 5 13 1 8 11 11 14 15 22 22 23
38 41 40 49 8 27 13 28 24 24 5 8 9 10 13 13 11 26 22 16 11 18 18 14 18 19 22 21 20 18 23 20 18 13 10 14 6 14 16 17 16 19 21 22 22
38 40 39 39 20 10 13 26 29 14 6 6 7 10 11 21 9 23 25 18 18 18 11 19 18 21 20 24 19 23 14 19 20 15 14 13 6 7 18 18 20 16 22 22 22
39 41 43 27 17 29 25 29 17 1 10 7 8 8 13 19 15 5 24 17 8 14 18 18 11 19 20 16 21 14 15 18 17 11 6 19 12 9 8 21 15 8 11 24 22
39 42 42 25 8 14 19 9 2 7 9 8 6 13 18 12 22 22 20 24 19 18 19 17 23 17 21 16 17 20 11 12 10 11 10 14 16 10 12 12 21 24 20 17 26
38 43 32 24 21 17 7 3 10 8 14 19 16 12 16 14 20 25 24 23 25 19 8 14 17 23 13 22 12 18 17 13 12 12 10 9 10 10 18 16 28 21 15 13 14
39 27 23 29 21 23 5 9 6 8 7 15 20 9 15 18 15 19 23 22 24 24 18 16 16 8 22 18 20 9 20 13 5 9 6 8 10 10 20 15 21 20 18 10 9
26 18 18 24 15 17 9 17 10 14 24 18 12 10 10 17 16 17 20 20 21 27 24 13 7 20 16 23 16 19 6 14 13 15 20 15 11 9 10 19 18 19 16 14 9
10 5 22 22 20 8 15 12 17 21 23 13 19 25 23 25 19 24 15 22 23 24 26 25 18 17 14 20 21 8 18 10 8 12 11 11 16 6 11 20 20 20 24 24 22
8 5 25 29 7 7 12 17 22 24 23 25 20 24 26 26 28 25 24 20 18 25 26 23 17 17 25 19 24 25 16 10 8 5 5 7 14 8 13 16 26 25 18 15 23
5 9 25 17 5 9 14 21 22 21 18 13 18 20 19 24 23 20 25 27 24 21 25 18 20 12 19 17 21 26 19 17 15 5 14 5 17 16 11 9 16 8 8 10 9
4 5 5 6 5 13 12 11 14 18 17 19 14 19 17 20 14 15 22 19 24 23 17 9 20 30 19 21 5 10 22 19 19 13 13 22 11 12 5 9 11 18 14 10 10
3 5 11 8 12 17 14 8 16 13 13 17 8 15 21 16 23 14 14 23 20 22 17 2 16 22 27 17 14 24 14 26 23 22 13 14 15 13 13 10 10 14 11 17 7
3 4 5 10 13 18 14 13 12 13 9 13 11 13 18 11 15 21 19 15 9 15 20 11 7 19 18 29 27 26 17 20 28 23 19 13 15 5 8 7 11 9 21 7 5
5 9 3 5 10 11 11 17 22 13 3 12 16 14 14 22 19 17 16 19 19 23 24 10 4 8 13 9 14 23 31 21 11 17 18 18 15 7 9 4 5 5 7 14 8
Wind_Direction
0 357 355 352 348 345 341 339 336 334 329 325 322 320 321 319 315 308 235 247 243 251 219 222 198 217 243 254 100 163 53 297 286 90 142 135 106 119 119 130 149 159 150 161 161
355 353 351 349 347 345 342 339 337 334 329 323 321 318 321 325 320 262 271 258 236 261 212 225 210 203 231 251 106 100 182 256 283 312 214 133 126 139 132 128 127 139 148 154 160
355 352 349 346 344 343 341 336 332 330 326 322 319 316 322 332 283 246 301 235 223 237 222 226 245 244 222 239 191 160 241 246 268 256 229 151 128 130 136 142 152 147 155 154 159
354 351 348 345 342 340 338 332 328 326 322 319 316 313 324 334 285 285 92 157 214 228 220 243 256 259 250 246 160 148 228 222 233 286 224 141 144 145 162 146 146 145 150 158 149
349 348 346 343 339 335 332 329 326 324 319 315 316 316 342 224 244 235 189 154 166 191 216 223 233 241 239 248 171 202 209 226 247 257 253 139 144 162 164 133 138 143 155 163 162
347 345 343 340 336 333 330 326 324 320 313 313 312 318 236 250 257 255 240 219 209 191 216 214 227 232 246 253 254 209 208 225 265 223 170 137 139 114 138 140 141 146 160 173 172
345 343 340 338 335 332 328 323 319 316 311 307 298 254 252 237 250 273 218 214 222 219 220 224 234 252 268 267 272 281 264 224 255 218 160 116 92 150 147 142 146 151 161 176 185
343 341 338 335 333 329 327 322 316 308 300 293 263 189 249 261 262 265 224 227 220 220 220 234 229 243 254 288 293 280 285 281 221 178 195 114 181 134 148 146 152 155 166 180 189
343 342 339 335 332 330 326 318 315 308 281 236 164 224 265 282 223 236 236 231 208 225 223 228 228 218 250 249 290 283 258 269 265 178 158 110 177 193 165 153 157 162 170 182 190
344 342 339 336 331 330 327 321 322 85 125 176 268 291 257 251 220 207 217 218 207 214 238 237 235 231 219 207 225 243 241 255 248 195 158 121 181 164 170 163 165 166 173 181 190
344 341 339 336 329 329 331 340 320 135 222 225 190 235 290 260 240 188 199 200 211 217 218 212 213 224 218 217 226 245 248 252 253 199 154 143 161 190 182 171 192 172 175 179 188
340 341 339 334 329 328 338 264 298 310 290 251 251 248 250 262 281 248 181 183 194 215 214 220 222 222 231 224 223 243 252 261 293 150 135 166 182 222 214 203 187 184 179 180 181
338 340 340 336 329 9 325 283 312 334 280 276 235 234 228 232 246 225 176 188 192 211 220 218 225 216 228 230 219 230 242 255 232 17 331 173 358 230 229 181 195 200 180 182 181
337 339 341 339 354 329 299 341 345 324 286 270 206 237 212 208 243 237 195 195 217 212 225 227 225 221 218 232 224 224 234 247 256 196 204 171 208 229 211 211 208 201 184 185 186
335 337 336 339 291 299 305 329 323 314 301 240 193 157 151 177 141 224 220 196 206 212 192 224 214 226 223 223 227 234 230 240 250 256 144 247 248 208 200 213 214 193 188 190 185
332 332 332 334 306 273 310 311 297 239 245 270 148 162 142 203 232 306 202 227 218 214 228 236 226 228 235 228 224 238 233 248 253 251 193 209 194 243 184 191 187 188 204 190 190
328 327 320 296 242 297 319 309 199 228 270 228 195 169 186 176 210 230 197 212 214 203 220 231 237 236 223 230 216 221 220 235 245 241 240 182 193 210 212 187 176 188 202 204 190
326 323 313 272 271 294 293 279 230 232 220 293 308 284 208 209 202 212 223 211 216 223 199 221 233 228 222 219 210 213 216 223 218 228 245 227 202 218 205 210 194 184 198 195 192
328 318 296 283 249 241 238 228 209 200 280 356 335 312 263 208 214 204 220 204 206 213 217 206 236 222 226 235 214 228 216 228 253 254 257 233 254 258 213 198 189 183 166 194 238
322 302 262 283 265 193 226 237 260 302 325 334 312 286 320 320 322 203 209 223 208 204 220 245 247 223 240 224 235 213 194 210 226 229 244 251 245 237 190 180 173 182 185 194 213
303 294 274 292 271 208 228 242 260 275 287 291 290 291 295 296 294 289 283 228 216 200 206 222 243 257 231 215 215 216 222 228 201 226 234 240 250 246 188 179 175 186 197 196 191
303 287 280 324 308 228 245 254 263 265 267 278 270 279 280 288 289 284 277 266 261 204 205 204 217 240 249 265 206 215 208 198 220 260 252 236 254 272 223 198 185 189 198 220 191
295 290 281 268 255 267 271 263 262 269 286 313 314 302 300 274 282 274 284 288 283 293 215 199 214 223 250 259 254 211 211 202 219 184 238 211 248 256 246 172 152 164 235 252 240
294 308 298 338 271 281 302 318 334 328 314 309 324 328 340 310 289 295 304 295 300 274 283 273 206 211 222 235 229 217 208 199 200 221 235 241 264 279 242 182 171 165 210 226 232
265 267 314 307 325 325 290 224 289 290 327 341 336 341 327 304 315 310 338 335 322 313 339 286 252 208 214 217 227 241 220 203 210 210 205 234 233 241 238 200 187 176 213 237 223
278 319 335 303 307 312 301 292 309 328 337 313 306 321 340 320 285 303 322 324 305 328 338 340 298 219 207 210 223 244 245 225 211 216 227 233 248 206 253 232 186 226 184 177 243
256 277 277 295 299 293 307 313 325 6 325 317 315 318 307 290 291 274 274 275 269 281 290 280 314 304 206 182 207 231 234 246 239 211 202 221 237 231 266 228 196 213 258 194 241